Pagina principale
METAR-TAF:

METAR-TAF

Aeroporti :

Bredasdorp, Sudafrica

latitudine: 34-33-17S, longitudine: 20-15-02E, altezza: 16 m

Osservazione

Il bollettino è stato emesso 29 minuti fa, alle 00:00 UTC
Vento 6 kt da est/nord-est
Temperature 8°C
Umidità 93%
Pressione 1017 hPa

METAR: FAOB 310000Z AUTO 07006KT //// // ////// 08/07 Q1017

Ora: 02:29 (00:29 UTC)


TAF: mancante

Osservazioni e previsioni meteorologiche di più di 4000 aeroporti (messaggi METAR e TAF).

Le stazioni disponibili sono rappresentate dai dischi gialli e rossi sulla carta.

Puntare il mouse per vedere il nome della stazione.

Clicca sopra per visualizzare le osservazioni e previsioni meteorologiche.

Per cambiare la mappa : fare clic sui pulsanti verdi con una croce nera per ingrandire, il pulsante verde con un trattino per diminuire, o sulla freccia verde per le mappe adiacenti.


METAR-TAF: